Location: Ar Ranvel
(48.3000°N, 4.8833°W)
Time: 20:26:10
(UTC+00:00)

ISS - Pass Details

Date: 28 September 2021
Orbit: 417 x 423 km, 51.6° (Epoch: 20 October)

Event Time Altitude Azimuth Distance (km) Brightness Sun altitude
Rises 20:36:26 0° 292° (WNW) 2,367 1.4 -25.3°
Reaches altitude 10° 20:38:32 10° 290° (WNW) 1,502 0.1 -25.6°
Enters shadow 20:40:18 28° 283° (WNW) 817 -1.7 -25.9°
